Find Starlink 35600

NORAD ID: 66510 Int'l Des: 2025-263 Owner: SPXS Country: US Constellation: starlink operational
LEOCIRCULAR

現在のビュー

3D地球を読み込み中...

Starlink 35600について

説明を読み込み中...

次回通過

Passes for default location (London). Set your location on the main map for personalized predictions.

高度履歴

Loading altitude history...

軌道要素

1 66510U 25263AB 26149.36818450 .00027618 00000-0 10088-2 0 9996
2 66510 42.9979 255.4083 0001200 260.7360 99.3355 15.27599328 31238
Epoch: May 29, 2026 • Age: 16 hours

現在のステータス

高度 489.2 km
速度 7.62 km/s
衛星直下点 -26.77°S, 33.57°W
打ち上げ日 Nov 15, 2025
運用期間 0.5 years
タイプ internet

技術仕様

分類 Payload
質量 575.00 kg
乾燥質量 530.00 kg
総質量 575.00 kg
長さ 0.30 m
直径 4.10 m
スパン 29.00 m
形状 Box + pan
製造者 SPXS
バスタイプ Starlink V2MO
フェーズステータス In Orbit
所有者/国 SPXS/US

Most Searched